FW2536 Weather Reports


time (UTC)temp
F
wind
direction
speed
knots
gust
knots
rain 1hr
in
rain 24hr
in
rain mn
in
humidity
%
barometer
mb
20260504050010 45 360 1.7 3.5 0.00 0.00 0.00 46 1013.7
20260504044509 45 360 0.9 2.6 0.00 0.00 0.00 45 1013.6
20260504043012 45 360 1.7 2.6 0.00 0.00 0.00 45 1013.6
20260504041506 45 360 0.9 3.5 0.00 0.00 0.00 46 1013.6
20260504040008 44 360 0.0 1.7 0.00 0.00 0.00 46 1013.4
20260504034501 44 360 0.0 1.7 0.00 0.00 0.00 47 1013.4
20260504033002 45 360 0.0 0.0 0.00 0.00 0.00 45 1013.3
20260504031502 45 360 0.0 1.7 0.00 0.00 0.00 43 1013.3
20260504030001 46 360 0.9 2.6 0.00 0.00 0.00 42 1013.3
20260504024601 46 360 0.0 0.9 0.00 0.00 0.00 42 1013.3
20260504023100 46 360 1.7 2.6 0.00 0.00 0.00 43 1013.3
20260504021602 45 360 0.0 0.9 0.00 0.00 0.00 46 1013.3
20260504020114 45 360 0.0 0.9 0.00 0.00 0.00 47 1013.4
20260504014605 45 360 0.0 0.0 0.00 0.00 0.00 45 1013.1
20260504013106 46 360 0.0 0.0 0.00 0.00 0.00 43 1013.0
20260504011559 48 238 0.0 1.7 0.00 0.00 0.00 42 1012.9
20260504010056 48 238 0.0 2.6 0.00 0.00 0.00 39 1012.8
20260504004559 48 360 0.0 1.7 0.00 0.00 0.00 42 1012.7
20260504003057 49 360 0.0 1.7 0.00 0.00 0.00 41 1012.6
20260504001559 51 360 0.0 1.7 0.00 0.00 0.00 37 1012.4
20260504000057 52 238 0.0 1.7 0.00 0.00 0.00 35 1012.4
20260503234553 53 360 0.9 2.6 0.00 0.00 0.00 32 1012.3
20260503233054 53 360 0.9 7.0 0.00 0.00 0.00 31 1012.2
20260503231552 54 360 1.7 5.2 0.00 0.00 0.00 30 1012.2
20260503224555 55 360 4.3 7.8 0.00 0.00 0.00 28 1012.2
20260503223048 55 360 2.6 4.3 0.00 0.00 0.00 28 1012.0
20260503221548 56 360 0.9 6.1 0.00 0.00 0.00 28 1012.0
20260503220047 55 207 0.9 4.3 0.00 0.00 0.00 28 1012.2
20260503214548 56 38 1.7 8.7 0.00 0.00 0.00 26 1012.2
20260503213046 56 360 6.1 13.9 0.00 0.00 0.00 26 1012.0
20260503211605 56 360 5.2 12.2 0.00 0.00 0.00 25 1012.1
20260503210046 55 360 1.7 11.3 0.00 0.00 0.00 24 1012.1
20260503204545 58 273 4.3 10.4 0.00 0.00 0.00 22 1011.9
20260503203047 56 360 4.3 12.2 0.00 0.00 0.00 25 1012.0
20260503201542 56 360 7.0 15.6 0.00 0.00 0.00 22 1012.0
20260503200053 56 293 3.5 15.6 0.00 0.00 0.00 25 1012.0
20260503194538 55 360 1.7 9.6 0.00 0.00 0.00 28 1012.2
20260503193042 56 230 4.3 8.7 0.00 0.00 0.00 23 1012.5
20260503191542 55 221 3.5 8.7 0.00 0.00 0.00 26 1012.6
20260503190032 55 70 2.6 9.6 0.00 0.00 0.00 24 1013.0
20260503184539 55 250 1.7 10.4 0.00 0.00 0.00 25 1013.2
20260503183028 53 240 3.5 10.4 0.00 0.00 0.00 29 1013.4
20260503181527 53 268 3.5 13.0 0.00 0.00 0.00 29 1013.7
20260503180041 52 286 3.5 10.4 0.00 0.00 0.00 27 1013.6
20260503174526 52 221 5.2 11.3 0.00 0.00 0.00 27 1013.8
20260503173028 52 202 2.6 8.7 0.00 0.00 0.00 29 1014.0
20260503171521 51 71 4.3 13.0 0.00 0.00 0.00 27 1014.0
20260503081555 37 360 0.0 1.7 0.00 0.01 0.00 55 1013.7
20260503080105 38 360 0.0 0.0 0.00 0.01 0.00 55 1013.7